Silver Orla — V7FI9 — position and weather

sailwx.info

Track history (hours):
 
Tides and Currents Weather Stations Pressure Air Temp Water Temp Dewpoint Dewpoint Depression Visibility Wind Speed Wind Dir Waves Ship Positions

Silver Orla

Last reported at 2017-Oct-23 01:58 UTC. Time now 2017-Oct-23 02:28 UTC.
Position N 43°24' E 004°60'.

Length 183 m; draft 8.9 m.

Type: Tanker. MMSI: 538005601.

Date/timePositionNaut miles runAvg speedWind from/ knotsBaromVisibWave heightAir tempDewpointWater temp
2017-Oct-23 01:58N 43°24' E 004°60'0 0.0
2017-Oct-23 01:16N 43°24' E 004°60'0 0.0
2017-Oct-23 00:43N 43°24' E 004°60'0 0.0
2017-Oct-23 00:28N 43°24' E 004°60'0 0.0
2017-Oct-22 23:58N 43°24' E 004°60'0 0.0
2017-Oct-22 23:28N 43°24' E 004°60'0 0.0
2017-Oct-22 22:58N 43°24' E 004°60'0 0.0
2017-Oct-22 22:28N 43°24' E 004°60'0 0.0
2017-Oct-22 21:58N 43°24' E 004°60'0 0.0
2017-Oct-22 21:28N 43°24' E 004°60'0 0.0
2017-Oct-22 20:58N 43°24' E 004°60'0 0.0
2017-Oct-22 20:29N 43°24' E 004°60'0 0.5
2017-Oct-22 20:00N 43°24' E 004°59'3 6.2
2017-Oct-22 19:30N 43°21' E 004°59'3 5.7
2017-Oct-22 19:00N 43°18' E 004°60'5 9.8
2017-Oct-22 18:30N 43°13' E 005°02'4 8.4
2017-Oct-22 18:01N 43°09' E 005°04'4 7.5
2017-Oct-22 17:30N 43°07' E 004°60'611.4
2017-Oct-22 17:00N 43°02' E 004°55'511.0
2017-Oct-22 16:30N 42°58' E 004°50'510.8
2017-Oct-22 16:00N 42°54' E 004°46'510.5
2017-Oct-22 15:30N 42°49' E 004°42'510.4
2017-Oct-22 15:00N 42°45' E 004°37'510.7
2017-Oct-22 14:30N 42°41' E 004°33'610.7
2017-Oct-22 13:58N 42°36' E 004°28'20211.3
2017-Oct-21 20:03N 39°57' E 001°43'112.6
2017-Oct-21 19:58N 39°56' E 001°42'15512.8
2017-Oct-21 07:52N 37°50' W 000°16'412.5
2017-Oct-21 07:30N 37°47' W 000°19'612.5
2017-Oct-21 07:00N 37°42' W 000°23'612.4
2017-Oct-21 06:30N 37°37' W 000°28'612.3
2017-Oct-21 06:00N 37°31' W 000°32'612.3
2017-Oct-21 05:30N 37°28' W 000°38'612.0
2017-Oct-21 05:00N 37°24' W 000°44'712.3
2017-Oct-21 04:28N 37°19' W 000°50'612.4
2017-Oct-21 04:00N 37°16' W 000°55'612.4
2017-Oct-21 03:30N 37°11' W 001°01'21512.9
2017-Oct-20 10:46N 36°00' W 005°15'313.7
2017-Oct-20 10:30N 36°03' W 005°18'8 0.3
2017-Oct-19 10:38N 36°08' W 005°24'2 4.3
2017-Oct-19 10:11N 36°07' W 005°23'1 4.8
2017-Oct-19 09:56N 36°06' W 005°22'2 5.7
2017-Oct-19 09:30N 36°04' W 005°20'5 8.6
2017-Oct-19 08:58N 36°05' W 005°14'3 0.6
2017-Oct-19 03:27N 36°06' W 005°10'512.2
2017-Oct-19 03:00N 36°05' W 005°17'5 9.9
2017-Oct-19 02:30N 36°02' W 005°22'5 9.8
2017-Oct-19 02:00N 35°58' W 005°26'6 0.2
2017-Oct-18 03:24N 35°54' W 005°30'2 3.3
2017-Oct-18 02:56N 35°55' W 005°31'1 1.8
2017-Oct-18 02:26N 35°55' W 005°32'1 1.3
2017-Oct-18 01:59N 35°54' W 005°33'1 0.7
2017-Oct-18 01:11N 35°54' W 005°33'0 0.4
2017-Oct-18 01:00N 35°54' W 005°33'3 4.2
2017-Oct-18 00:24N 35°54' W 005°37'3 8.4
2017-Oct-18 00:00N 35°54' W 005°41'4 8.1
2017-Oct-17 23:30N 35°53' W 005°46'3 5.5
2017-Oct-17 23:00N 35°53' W 005°49'611.3
2017-Oct-17 22:30N 35°53' W 005°56'611.0
2017-Oct-17 21:55N 35°53' W 006°04'21710.7
2017-Oct-17 01:41N 37°46' W 009°56'1412.5
2017-Oct-17 00:35N 37°59' W 010°00'313.2
2017-Oct-17 00:21N 38°02' W 010°01'513.3
2017-Oct-17 00:00N 38°07' W 010°02'712.3
2017-Oct-16 23:25N 38°14' W 010°05'512.1
2017-Oct-16 23:00N 38°18' W 010°06'612.3
2017-Oct-16 22:31N 38°24' W 010°08'712.2
2017-Oct-16 21:58N 38°31' W 010°10'612.5
2017-Oct-16 21:27N 38°37' W 010°11'612.3
2017-Oct-16 21:00N 38°43' W 010°13'612.3
2017-Oct-16 20:31N 38°49' W 010°13'612.4
2017-Oct-16 20:00N 38°55' W 010°12'612.4
2017-Oct-16 19:30N 39°01' W 010°13'713.1
2017-Oct-16 19:00N 39°08' W 010°12'40810.5
2017-Oct-15 04:05N 45°47' W 008°18'111.6
2017-Oct-15 03:59N 45°48' W 008°18'3911.3
2017-Oct-15 00:30N 46°22' W 007°50'9711.4
2017-Oct-14 15:59N 47°48' W 006°42'2612.0
2017-Oct-14 13:49N 48°10' W 006°23'1311.5
2017-Oct-14 12:40N 48°22' W 006°14'211.1
2017-Oct-14 12:28N 48°24' W 006°12'2810.7
2017-Oct-14 09:53N 48°48' W 005°52'810.4
2017-Oct-14 09:09N 48°54' W 005°46'110.5
2017-Oct-14 09:00N 48°55' W 005°44'610.3
2017-Oct-14 08:26N 48°58' W 005°37'510.4
2017-Oct-14 07:59N 49°00' W 005°30'5 9.4
2017-Oct-14 07:30N 49°03' W 005°24'5 9.1
2017-Oct-14 07:00N 49°05' W 005°18'5 7.5
2017-Oct-14 06:22N 49°08' W 005°12'3 7.1
2017-Oct-14 05:57N 49°09' W 005°08'510.7
2017-Oct-14 05:27N 49°12' W 005°01'512.2
2017-Oct-14 05:00N 49°15' W 004°54'812.2
2017-Oct-14 04:21N 49°19' W 004°44'612.1
2017-Oct-14 03:53N 49°22' W 004°36'512.0
2017-Oct-14 03:30N 49°24' W 004°30'611.7
2017-Oct-14 03:00N 49°27' W 004°22'711.6
2017-Oct-14 02:25N 49°30' W 004°13'1011.2
2017-Oct-14 01:35N 49°35' W 004°01'111.0
2017-Oct-14 01:29N 49°36' W 003°59'711.0
2017-Oct-14 00:53N 49°39' W 003°50'410.9
2017-Oct-14 00:30N 49°41' W 003°45'511.0
2017-Oct-14 00:00N 49°44' W 003°38'511.0
2017-Oct-13 23:30N 49°47' W 003°31'611.2
2017-Oct-13 23:00N 49°50' W 003°23'611.5
2017-Oct-13 22:30N 49°53' W 003°16'611.9
2017-Oct-13 22:01N 49°56' W 003°08'612.1
2017-Oct-13 21:30N 49°58' W 002°59'510.9
2017-Oct-13 21:01N 49°60' W 002°51'510.2
2017-Oct-13 20:30N 50°02' W 002°43'1513.5
2017-Oct-13 19:21N 50°06' W 002°20'613.7
2017-Oct-13 18:57N 50°07' W 002°12'613.5
2017-Oct-13 18:28N 50°09' W 002°02'613.1
2017-Oct-13 18:00N 50°11' W 001°53'612.6
2017-Oct-13 17:30N 50°12' W 001°43'612.0
2017-Oct-13 17:00N 50°14' W 001°35'511.0
2017-Oct-13 16:30N 50°16' W 001°26'610.4
2017-Oct-13 15:56N 50°18' W 001°17'4 9.8
2017-Oct-13 15:30N 50°19' W 001°11'5 9.3
2017-Oct-13 14:57N 50°20' W 001°03'5 9.1
2017-Oct-13 14:26N 50°22' W 000°56'5 8.9
2017-Oct-13 13:54N 50°22' W 000°49'4 9.2
2017-Oct-13 13:28N 50°23' W 000°43'5 9.3
2017-Oct-13 12:57N 50°25' W 000°35'5 9.6
2017-Oct-13 12:27N 50°26' W 000°28'410.1
2017-Oct-13 12:00N 50°27' W 000°22'510.7
2017-Oct-13 11:30N 50°28' W 000°13'611.1
2017-Oct-13 11:01N 50°30' W 000°05'611.5
2017-Oct-13 10:30N 50°31' E 000°04'611.7
2017-Oct-13 10:01N 50°33' E 000°12'611.8
2017-Oct-13 09:31N 50°35' E 000°21'611.8
2017-Oct-13 09:01N 50°36' E 000°30'611.8
2017-Oct-13 08:30N 50°40' E 000°38'611.6
2017-Oct-13 08:01N 50°43' E 000°46'611.3
2017-Oct-13 07:30N 50°46' E 000°53'511.0
2017-Oct-13 07:00N 50°49' E 000°60'510.6
2017-Oct-13 06:30N 50°53' E 001°06'510.2
2017-Oct-13 06:00N 50°56' E 001°12'5 9.8
2017-Oct-13 05:30N 50°59' E 001°18'5 9.4
2017-Oct-13 05:00N 51°03' E 001°24'510.0
2017-Oct-13 04:30N 51°06' E 001°30'510.8
2017-Oct-13 04:00N 51°09' E 001°37'611.2
2017-Oct-13 03:30N 51°12' E 001°44'611.5
2017-Oct-13 03:00N 51°17' E 001°49'611.9
2017-Oct-13 02:30N 51°22' E 001°54'611.3
2017-Oct-13 02:00N 51°27' E 001°58'  
Track history (hours):
 
Tides and Currents Weather Stations Pressure Air Temp Water Temp Dewpoint Dewpoint Depression Visibility Wind Speed Wind Dir Waves Ship Positions

Silver Orla

Last reported at 2017-Oct-23 01:58 UTC. Time now 2017-Oct-23 02:28 UTC.
Position N 43°24' E 004°60'.

Length 183 m; draft 8.9 m.

Type: Tanker. MMSI: 538005601.

Date/timePositionNaut miles runAvg speedWind from/ knotsBaromVisibWave heightAir tempDewpointWater temp
2017-Oct-23 01:58N 43°24' E 004°60'0 0.0
2017-Oct-23 01:16N 43°24' E 004°60'0 0.0
2017-Oct-23 00:43N 43°24' E 004°60'0 0.0
2017-Oct-23 00:28N 43°24' E 004°60'0 0.0
2017-Oct-22 23:58N 43°24' E 004°60'0 0.0
2017-Oct-22 23:28N 43°24' E 004°60'0 0.0
2017-Oct-22 22:58N 43°24' E 004°60'0 0.0
2017-Oct-22 22:28N 43°24' E 004°60'0 0.0
2017-Oct-22 21:58N 43°24' E 004°60'0 0.0
2017-Oct-22 21:28N 43°24' E 004°60'0 0.0
2017-Oct-22 20:58N 43°24' E 004°60'0 0.0
2017-Oct-22 20:29N 43°24' E 004°60'0 0.5
2017-Oct-22 20:00N 43°24' E 004°59'3 6.2
2017-Oct-22 19:30N 43°21' E 004°59'3 5.7
2017-Oct-22 19:00N 43°18' E 004°60'5 9.8
2017-Oct-22 18:30N 43°13' E 005°02'4 8.4
2017-Oct-22 18:01N 43°09' E 005°04'4 7.5
2017-Oct-22 17:30N 43°07' E 004°60'611.4
2017-Oct-22 17:00N 43°02' E 004°55'511.0
2017-Oct-22 16:30N 42°58' E 004°50'510.8
2017-Oct-22 16:00N 42°54' E 004°46'510.5
2017-Oct-22 15:30N 42°49' E 004°42'510.4
2017-Oct-22 15:00N 42°45' E 004°37'510.7
2017-Oct-22 14:30N 42°41' E 004°33'610.7
2017-Oct-22 13:58N 42°36' E 004°28'20211.3
2017-Oct-21 20:03N 39°57' E 001°43'112.6
2017-Oct-21 19:58N 39°56' E 001°42'15512.8
2017-Oct-21 07:52N 37°50' W 000°16'412.5
2017-Oct-21 07:30N 37°47' W 000°19'612.5
2017-Oct-21 07:00N 37°42' W 000°23'612.4
2017-Oct-21 06:30N 37°37' W 000°28'612.3
2017-Oct-21 06:00N 37°31' W 000°32'612.3
2017-Oct-21 05:30N 37°28' W 000°38'612.0
2017-Oct-21 05:00N 37°24' W 000°44'712.3
2017-Oct-21 04:28N 37°19' W 000°50'612.4
2017-Oct-21 04:00N 37°16' W 000°55'612.4
2017-Oct-21 03:30N 37°11' W 001°01'21512.9
2017-Oct-20 10:46N 36°00' W 005°15'313.7
2017-Oct-20 10:30N 36°03' W 005°18'8 0.3
2017-Oct-19 10:38N 36°08' W 005°24'2 4.3
2017-Oct-19 10:11N 36°07' W 005°23'1 4.8
2017-Oct-19 09:56N 36°06' W 005°22'2 5.7
2017-Oct-19 09:30N 36°04' W 005°20'5 8.6
2017-Oct-19 08:58N 36°05' W 005°14'3 0.6
2017-Oct-19 03:27N 36°06' W 005°10'512.2
2017-Oct-19 03:00N 36°05' W 005°17'5 9.9
2017-Oct-19 02:30N 36°02' W 005°22'5 9.8
2017-Oct-19 02:00N 35°58' W 005°26'6 0.2
2017-Oct-18 03:24N 35°54' W 005°30'2 3.3
2017-Oct-18 02:56N 35°55' W 005°31'1 1.8
2017-Oct-18 02:26N 35°55' W 005°32'1 1.3
2017-Oct-18 01:59N 35°54' W 005°33'1 0.7
2017-Oct-18 01:11N 35°54' W 005°33'0 0.4
2017-Oct-18 01:00N 35°54' W 005°33'3 4.2
2017-Oct-18 00:24N 35°54' W 005°37'3 8.4
2017-Oct-18 00:00N 35°54' W 005°41'4 8.1
2017-Oct-17 23:30N 35°53' W 005°46'3 5.5
2017-Oct-17 23:00N 35°53' W 005°49'611.3
2017-Oct-17 22:30N 35°53' W 005°56'611.0
2017-Oct-17 21:55N 35°53' W 006°04'21710.7
2017-Oct-17 01:41N 37°46' W 009°56'1412.5
2017-Oct-17 00:35N 37°59' W 010°00'313.2
2017-Oct-17 00:21N 38°02' W 010°01'513.3
2017-Oct-17 00:00N 38°07' W 010°02'712.3
2017-Oct-16 23:25N 38°14' W 010°05'512.1
2017-Oct-16 23:00N 38°18' W 010°06'612.3
2017-Oct-16 22:31N 38°24' W 010°08'712.2
2017-Oct-16 21:58N 38°31' W 010°10'612.5
2017-Oct-16 21:27N 38°37' W 010°11'612.3
2017-Oct-16 21:00N 38°43' W 010°13'612.3
2017-Oct-16 20:31N 38°49' W 010°13'612.4
2017-Oct-16 20:00N 38°55' W 010°12'612.4
2017-Oct-16 19:30N 39°01' W 010°13'713.1
2017-Oct-16 19:00N 39°08' W 010°12'40810.5
2017-Oct-15 04:05N 45°47' W 008°18'111.6
2017-Oct-15 03:59N 45°48' W 008°18'3911.3
2017-Oct-15 00:30N 46°22' W 007°50'9711.4
2017-Oct-14 15:59N 47°48' W 006°42'2612.0
2017-Oct-14 13:49N 48°10' W 006°23'1311.5
2017-Oct-14 12:40N 48°22' W 006°14'211.1
2017-Oct-14 12:28N 48°24' W 006°12'2810.7
2017-Oct-14 09:53N 48°48' W 005°52'810.4
2017-Oct-14 09:09N 48°54' W 005°46'110.5
2017-Oct-14 09:00N 48°55' W 005°44'610.3
2017-Oct-14 08:26N 48°58' W 005°37'510.4
2017-Oct-14 07:59N 49°00' W 005°30'5 9.4
2017-Oct-14 07:30N 49°03' W 005°24'5 9.1
2017-Oct-14 07:00N 49°05' W 005°18'5 7.5
2017-Oct-14 06:22N 49°08' W 005°12'3 7.1
2017-Oct-14 05:57N 49°09' W 005°08'510.7
2017-Oct-14 05:27N 49°12' W 005°01'512.2
2017-Oct-14 05:00N 49°15' W 004°54'812.2
2017-Oct-14 04:21N 49°19' W 004°44'612.1
2017-Oct-14 03:53N 49°22' W 004°36'512.0
2017-Oct-14 03:30N 49°24' W 004°30'611.7
2017-Oct-14 03:00N 49°27' W 004°22'711.6
2017-Oct-14 02:25N 49°30' W 004°13'1011.2
2017-Oct-14 01:35N 49°35' W 004°01'111.0
2017-Oct-14 01:29N 49°36' W 003°59'711.0
2017-Oct-14 00:53N 49°39' W 003°50'410.9
2017-Oct-14 00:30N 49°41' W 003°45'511.0
2017-Oct-14 00:00N 49°44' W 003°38'511.0
2017-Oct-13 23:30N 49°47' W 003°31'611.2
2017-Oct-13 23:00N 49°50' W 003°23'611.5
2017-Oct-13 22:30N 49°53' W 003°16'611.9
2017-Oct-13 22:01N 49°56' W 003°08'612.1
2017-Oct-13 21:30N 49°58' W 002°59'510.9
2017-Oct-13 21:01N 49°60' W 002°51'510.2
2017-Oct-13 20:30N 50°02' W 002°43'1513.5
2017-Oct-13 19:21N 50°06' W 002°20'613.7
2017-Oct-13 18:57N 50°07' W 002°12'613.5
2017-Oct-13 18:28N 50°09' W 002°02'613.1
2017-Oct-13 18:00N 50°11' W 001°53'612.6
2017-Oct-13 17:30N 50°12' W 001°43'612.0
2017-Oct-13 17:00N 50°14' W 001°35'511.0
2017-Oct-13 16:30N 50°16' W 001°26'610.4
2017-Oct-13 15:56N 50°18' W 001°17'4 9.8
2017-Oct-13 15:30N 50°19' W 001°11'5 9.3
2017-Oct-13 14:57N 50°20' W 001°03'5 9.1
2017-Oct-13 14:26N 50°22' W 000°56'5 8.9
2017-Oct-13 13:54N 50°22' W 000°49'4 9.2
2017-Oct-13 13:28N 50°23' W 000°43'5 9.3
2017-Oct-13 12:57N 50°25' W 000°35'5 9.6
2017-Oct-13 12:27N 50°26' W 000°28'410.1
2017-Oct-13 12:00N 50°27' W 000°22'510.7
2017-Oct-13 11:30N 50°28' W 000°13'611.1
2017-Oct-13 11:01N 50°30' W 000°05'611.5
2017-Oct-13 10:30N 50°31' E 000°04'611.7
2017-Oct-13 10:01N 50°33' E 000°12'611.8
2017-Oct-13 09:31N 50°35' E 000°21'611.8
2017-Oct-13 09:01N 50°36' E 000°30'611.8
2017-Oct-13 08:30N 50°40' E 000°38'611.6
2017-Oct-13 08:01N 50°43' E 000°46'611.3
2017-Oct-13 07:30N 50°46' E 000°53'511.0
2017-Oct-13 07:00N 50°49' E 000°60'510.6
2017-Oct-13 06:30N 50°53' E 001°06'510.2
2017-Oct-13 06:00N 50°56' E 001°12'5 9.8
2017-Oct-13 05:30N 50°59' E 001°18'5 9.4
2017-Oct-13 05:00N 51°03' E 001°24'510.0
2017-Oct-13 04:30N 51°06' E 001°30'510.8
2017-Oct-13 04:00N 51°09' E 001°37'611.2
2017-Oct-13 03:30N 51°12' E 001°44'611.5
2017-Oct-13 03:00N 51°17' E 001°49'611.9
2017-Oct-13 02:30N 51°22' E 001°54'611.3
2017-Oct-13 02:00N 51°27' E 001°58'  

Dump ship's entire track history